FW4751 Weather Reports


Display with metric or nautical units.
time (UTC)temp
F
wind
direction
speed
MPH
gust
MPH
rain 1hr
in
rain 24hr
in
rain mn
in
humidity
%
barometer
mb
20260508203022 64 45 3.0 8.0 0.00 0.00 0.00 74 1019.2
20260508202503 64 45 4.0 9.0 0.00 0.00 0.00 73 1019.3
20260508202003 64 68 4.0 9.0 0.00 0.00 0.00 73 1019.2
20260508201523 64 45 3.0 8.0 0.00 0.00 0.00 74 1019.2
20260508201003 64 45 4.0 9.0 0.00 0.00 0.00 73 1019.2
20260508200505 64 45 4.0 8.0 0.00 0.00 0.00 74 1019.3
20260508200025 64 45 4.0 9.0 0.00 0.00 0.00 74 1019.2
20260508195505 64 45 3.0 8.0 0.00 0.00 0.00 74 1019.2
20260508195005 64 45 4.0 8.0 0.00 0.00 0.00 74 1019.3
20260508194545 64 45 4.0 10.0 0.00 0.00 0.00 74 1019.3
20260508194025 65 45 4.0 10.0 0.00 0.00 0.00 73 1019.4
20260508193505 65 45 3.0 8.0 0.00 0.00 0.00 74 1019.2
20260508193005 64 45 3.0 9.0 0.00 0.00 0.00 74 1019.4
20260508192505 64 68 3.0 8.0 0.00 0.00 0.00 75 1019.5
20260508192005 64 68 4.0 11.0 0.00 0.00 0.00 74 1019.5
20260508191505 64 45 4.0 11.0 0.00 0.00 0.00 73 1019.4
20260508191025 64 68 3.0 8.0 0.00 0.00 0.00 74 1019.5
20260508190524 63 68 3.0 8.0 0.00 0.00 0.00 74 1019.4
20260508190005 63 68 3.0 8.0 0.00 0.00 0.00 73 1019.5
20260508185525 63 45 4.0 9.0 0.00 0.00 0.00 73 1019.5
20260508185005 64 45 3.0 7.0 0.00 0.00 0.00 73 1019.6
20260508184505 63 68 3.0 6.0 0.00 0.00 0.00 73 1019.7
20260508184005 63 68 3.0 7.0 0.00 0.00 0.00 72 1019.6
20260508183505 63 68 3.0 8.0 0.00 0.00 0.00 72 1019.6
20260508183004 63 68 3.0 8.0 0.00 0.00 0.00 71 1019.6
20260508182505 63 45 3.0 7.0 0.00 0.00 0.00 71 1019.8
20260508182025 63 45 2.0 6.0 0.00 0.00 0.00 71 1019.7
20260508181505 64 68 3.0 7.0 0.00 0.00 0.00 70 1019.7
20260508181005 64 68 2.0 5.0 0.00 0.00 0.00 69 1019.7
20260508180505 64 68 2.0 5.0 0.00 0.00 0.00 68 1019.9
20260508180025 64 68 2.0 5.0 0.00 0.00 0.00 68 1019.7
20260508175505 63 45 2.0 5.0 0.00 0.00 0.00 68 1019.8
20260508175004 63 68 2.0 6.0 0.00 0.00 0.00 68 1019.8
20260508174505 63 68 2.0 6.0 0.00 0.00 0.00 69 1019.7
20260508174005 63 68 2.0 5.0 0.00 0.00 0.00 68 1019.7
20260508173504 63 45 3.0 5.0 0.00 0.00 0.00 66 1019.7
20260508173005 64 68 2.0 5.0 0.00 0.00 0.00 66 1019.7
20260508172505 64 113 1.0 3.0 0.00 0.00 0.00 68 1019.7
20260508172004 63 113 2.0 6.0 0.00 0.00 0.00 68 1019.7
20260508171505 63 113 2.0 4.0 0.00 0.00 0.00 69 1019.7
20260508171004 62 68 2.0 5.0 0.00 0.00 0.00 69 1019.7
20260508170504 62 45 2.0 5.0 0.00 0.00 0.00 69 1019.7
20260508170005 62 45 2.0 4.0 0.00 0.00 0.00 69 1019.7
20260508165504 62 23 1.0 3.0 0.00 0.00 0.00 70 1019.7
20260508165005 61 45 2.0 4.0 0.00 0.00 0.00 70 1019.7
20260508164505 61 45 2.0 4.0 0.00 0.00 0.00 70 1019.7
20260508164004 61 90 1.0 2.0 0.00 0.00 0.00 70 1019.6
20260508163504 60 180 1.0 2.0 0.00 0.00 0.00 71 1019.7
20260508163005 60 113 1.0 2.0 0.00 0.00 0.00 72 1019.7
20260508162505 59 113 1.0 3.0 0.00 0.00 0.00 73 1019.8
20260508162004 58 0.0 2.0 0.00 0.00 0.00 74 1019.7
20260508161545 58 135 1.0 2.0 0.00 0.00 0.00 74 1019.7
20260508161004 57 315 1.0 2.0 0.00 0.00 0.00 75 1019.7
20260508160504 57 45 1.0 2.0 0.00 0.00 0.00 75 1019.8
20260508160005 57 45 1.0 3.0 0.00 0.00 0.00 74 1019.8
20260508155504 58 45 1.0 3.0 0.00 0.00 0.00 74 1019.8
20260508155125 57 45 1.0 2.0 0.00 0.00 0.00 74 1019.8
20260508154505 58 158 1.0 2.0 0.00 0.00 0.00 73 1019.9
20260508154025 57 113 1.0 3.0 0.00 0.00 0.00 75 1019.9
20260508153504 56 45 1.0 4.0 0.00 0.00 0.00 77 1019.8
20260508153004 56 338 1.0 2.0 0.00 0.00 0.00 76 1019.8
20260508152504 56 315 1.0 3.0 0.00 0.00 0.00 77 1019.8
20260508152005 56 45 1.0 4.0 0.00 0.00 0.00 77 1019.9
20260508151524 56 45 1.0 3.0 0.00 0.00 0.00 78 1019.9
20260508151004 55 0 1.0 2.0 0.00 0.00 0.00 79 1019.8
20260508150505 55 203 1.0 2.0 0.00 0.00 0.00 79 1019.9
20260508150005 55 293 1.0 3.0 0.00 0.00 0.00 79 1019.8
20260508145504 55 225 1.0 3.0 0.00 0.00 0.00 79 1019.9
20260508145004 55 225 1.0 3.0 0.00 0.00 0.00 80 1019.9
20260508144524 54 315 1.0 3.0 0.00 0.00 0.00 80 1019.9
20260508144004 54 270 1.0 2.0 0.00 0.00 0.00 80 1019.9
20260508143504 54 248 1.0 4.0 0.00 0.00 0.00 80 1019.9
20260508143004 54 293 1.0 2.0 0.00 0.00 0.00 81 1019.8
20260508142504 54 315 1.0 3.0 0.00 0.00 0.00 81 1019.8
20260508142005 54 315 1.0 2.0 0.00 0.00 0.00 81 1019.8
20260508141504 54 315 1.0 2.0 0.00 0.00 0.00 81 1019.7
20260508141004 54 338 1.0 2.0 0.00 0.00 0.00 82 1019.7
20260508140504 54 45 1.0 3.0 0.00 0.00 0.00 82 1019.6
20260508140024 54 338 2.0 4.0 0.00 0.00 0.00 81 1019.5
20260508135504 54 23 1.0 3.0 0.00 0.00 0.00 82 1019.3
20260508135004 54 45 2.0 4.0 0.00 0.00 0.00 82 1019.4
20260508134505 54 338 1.0 3.0 0.00 0.00 0.00 82 1019.4
20260508134004 54 338 1.0 4.0 0.00 0.00 0.00 82 1019.3
20260508133504 54 45 1.0 2.0 0.00 0.00 0.00 82 1019.2
20260508133004 54 338 1.0 3.0 0.00 0.00 0.00 82 1019.3
20260508132505 54 338 1.0 3.0 0.00 0.00 0.00 82 1019.2
20260508132024 54 45 1.0 3.0 0.00 0.00 0.00 82 1019.2
20260508131504 54 338 1.0 3.0 0.00 0.00 0.00 82 1019.4
20260508131004 54 315 1.0 2.0 0.00 0.00 0.00 82 1019.2
20260508130504 54 0.0 2.0 0.00 0.00 0.00 82 1019.2
20260508130024 54 0.0 1.0 0.00 0.00 0.00 82 1019.1
20260508125504 54 45 1.0 2.0 0.00 0.00 0.00 82 1019.1
20260508125004 54 0.0 2.0 0.00 0.00 0.00 82 1019.1
20260508124524 54 0.0 1.0 0.00 0.00 0.00 82 1019.1
20260508124004 54 0.0 2.0 0.00 0.00 0.00 82 1019.1
20260508123504 54 45 1.0 2.0 0.00 0.00 0.00 82 1019.2
20260508123004 54 0.0 1.0 0.00 0.00 0.00 82 1019.1
20260508122504 54 338 1.0 3.0 0.00 0.00 0.00 82 1019.2
20260508122004 54 0.0 1.0 0.00 0.00 0.00 82 1019.1
20260508121504 54 0.0 2.0 0.00 0.00 0.00 82 1019.2
20260508121004 54 338 1.0 3.0 0.00 0.00 0.00 82 1019.1
20260508120503 54 338 1.0 4.0 0.00 0.00 0.00 82 1019.3
20260508120004 54 338 1.0 3.0 0.00 0.00 0.00 82 1019.2
20260508115503 54 338 2.0 4.0 0.00 0.00 0.00 82 1019.2
20260508115004 54 338 2.0 4.0 0.00 0.00 0.00 82 1019.2
20260508114503 54 338 1.0 2.0 0.00 0.00 0.00 82 1019.2
20260508114009 54 338 1.0 3.0 0.00 0.00 0.00 82 1019.2
20260508113524 54 338 1.0 3.0 0.00 0.00 0.00 82 1019.2
20260508113004 54 338 1.0 3.0 0.00 0.00 0.00 82 1019.1
20260508112503 54 338 1.0 3.0 0.00 0.00 0.00 82 1019.1
20260508112004 54 338 2.0 4.0 0.00 0.00 0.00 82 1019.0
20260508111503 54 315 2.0 4.0 0.00 0.00 0.00 82 1019.0
20260508111003 54 338 1.0 4.0 0.00 0.00 0.00 82 1019.1
20260508110504 55 315 2.0 4.0 0.00 0.00 0.00 82 1019.1
20260508110003 55 338 1.0 4.0 0.00 0.00 0.00 83 1019.0
20260508105504 55 315 1.0 3.0 0.00 0.00 0.00 83 1019.1
20260508105003 55 315 1.0 4.0 0.00 0.00 0.00 83 1019.1
20260508104504 55 338 1.0 3.0 0.00 0.00 0.00 83 1019.0
20260508104004 55 315 1.0 2.0 0.00 0.00 0.00 83 1019.0
20260508103503 55 315 1.0 2.0 0.00 0.00 0.00 83 1019.0
20260508103003 55 45 1.0 3.0 0.00 0.00 0.00 83 1019.1
20260508102503 55 338 1.0 3.0 0.00 0.00 0.00 83 1019.1
20260508102003 55 315 1.0 3.0 0.00 0.00 0.00 83 1019.0
20260508101503 55 315 1.0 2.0 0.00 0.00 0.00 83 1019.0
20260508101003 55 45 1.0 2.0 0.00 0.00 0.00 83 1019.0
20260508100503 55 45 1.0 3.0 0.00 0.00 0.00 83 1018.9
20260508100004 55 45 1.0 3.0 0.00 0.00 0.00 83 1018.8
20260508095503 55 338 1.0 3.0 0.00 0.00 0.00 83 1018.8
20260508095003 55 338 1.0 4.0 0.00 0.00 0.00 83 1018.9
20260508094523 55 45 2.0 4.0 0.00 0.00 0.00 83 1018.9
20260508094003 55 338 2.0 4.0 0.00 0.00 0.00 83 1018.8
20260508093523 55 45 2.0 4.0 0.00 0.00 0.00 83 1018.8
20260508093003 55 338 1.0 3.0 0.00 0.00 0.00 83 1018.9
20260508092503 55 338 1.0 4.0 0.00 0.00 0.00 83 1018.9
20260508092003 55 45 1.0 3.0 0.00 0.00 0.00 83 1018.9
20260508091523 55 45 1.0 4.0 0.00 0.00 0.00 83 1018.9
20260508091003 55 338 1.0 4.0 0.00 0.00 0.00 83 1018.9
20260508090523 55 23 2.0 4.0 0.00 0.00 0.00 84 1018.9
20260508090003 55 315 1.0 4.0 0.00 0.00 0.00 84 1018.8
20260508085504 55 338 1.0 2.0 0.00 0.00 0.00 84 1018.9
20260508085003 55 338 1.0 3.0 0.00 0.00 0.00 84 1019.0
20260508084504 55 338 1.0 3.0 0.00 0.00 0.00 84 1019.0
20260508084003 55 45 1.0 3.0 0.00 0.00 0.00 84 1018.9
20260508083523 55 45 1.0 3.0 0.00 0.00 0.00 84 1019.0
20260508083003 55 315 1.0 2.0 0.00 0.00 0.00 85 1019.0
20260508082523 55 315 1.0 3.0 0.00 0.00 0.00 85 1019.1
20260508082003 55 338 1.0 3.0 0.00 0.00 0.00 85 1019.0
20260508081503 54 45 1.0 4.0 0.00 0.00 0.00 85 1019.1
20260508081003 54 338 2.0 4.0 0.00 0.00 0.00 85 1019.1
20260508080523 54 338 2.0 5.0 0.00 0.00 0.00 86 1019.2
20260508080003 54 45 1.0 4.0 0.00 0.00 0.00 86 1019.1
20260508075503 54 315 2.0 5.0 0.00 0.00 0.00 87 1019.1
20260508075003 54 338 1.0 5.0 0.00 0.00 0.00 87 1019.1
20260508074503 54 315 1.0 4.0 0.00 0.00 0.00 88 1019.1
20260508074003 54 315 1.0 3.0 0.00 0.00 0.00 88 1019.0
20260508073523 54 315 1.0 3.0 0.00 0.00 0.00 89 1019.0
20260508073003 54 315 1.0 4.0 0.00 0.00 0.00 89 1019.0
20260508072503 54 338 1.0 3.0 0.00 0.00 0.00 89 1018.9
20260508072003 53 338 1.0 3.0 0.00 0.00 0.00 89 1019.0
20260508071523 53 315 1.0 3.0 0.00 0.00 0.00 89 1018.9
20260508071003 53 315 1.0 3.0 0.00 0.00 0.00 89 1019.0
20260508070503 53 315 1.0 2.0 0.00 0.00 0.00 89 1019.0
20260508070025 53 338 1.0 2.0 0.00 0.00 0.00 88 1019.0
20260508065503 53 315 1.0 1.0 0.00 0.00 0.00 88 1019.0
20260508065003 53 0.0 1.0 0.00 0.00 0.00 88 1019.0
20260508064503 53 0.0 1.0 0.00 0.00 0.00 88 1019.0
20260508064003 53 0.0 2.0 0.00 0.00 0.00 87 1019.0
20260508063503 53 0.0 1.0 0.00 0.00 0.00 87 1019.0
20260508063003 53 0.0 2.0 0.00 0.00 0.00 88 1019.1
20260508062503 53 293 1.0 2.0 0.00 0.00 0.00 87 1019.0
20260508062003 53 0.0 1.0 0.00 0.00 0.00 87 1019.0
20260508061523 53 0.0 2.0 0.00 0.00 0.00 87 1018.9
20260508061003 53 0.0 2.0 0.00 0.00 0.00 87 1018.8
20260508060503 53 0.0 1.0 0.00 0.00 0.00 87 1018.7
20260508060003 53 0.0 1.0 0.00 0.00 0.00 87 1018.7
20260508055503 54 0.0 1.0 0.00 0.00 0.00 86 1018.7
20260508055004 54 0.0 1.0 0.00 0.00 0.00 86 1018.7
20260508054505 54 0.0 1.0 0.00 0.00 0.00 86 1018.6
20260508054005 54 0.0 2.0 0.00 0.00 0.00 86 1018.6
20260508053505 54 0 1.0 2.0 0.00 0.00 0.00 86 1018.7
20260508053004 54 0.0 1.0 0.00 0.00 0.00 86 1018.6
20260508052504 54 45 1.0 2.0 0.00 0.00 0.00 86 1018.5
20260508052005 54 0.0 2.0 0.00 0.00 0.00 86 1018.6
20260508051504 55 0.0 2.0 0.00 0.00 0.00 86 1018.5
20260508051005 55 45 1.0 2.0 0.00 0.00 0.00 86 1018.6
20260508050504 55 45 1.0 2.0 0.00 0.00 0.00 85 1018.5
20260508050004 55 45 1.0 2.0 0.00 0.00 0.00 85 1018.4
20260508045505 55 0.0 2.0 0.00 0.00 0.00 85 1018.4
20260508045004 55 45 1.0 3.0 0.00 0.00 0.00 85 1018.4
20260508044505 55 45 2.0 3.0 0.00 0.00 0.00 85 1018.4
20260508044024 56 45 1.0 3.0 0.00 0.00 0.00 85 1018.4
20260508043525 56 45 1.0 3.0 0.00 0.00 0.00 85 1018.3
20260508043005 56 45 1.0 3.0 0.00 0.00 0.00 84 1018.3
20260508042525 56 45 1.0 3.0 0.00 0.00 0.00 84 1018.3
20260508042005 56 45 1.0 3.0 0.00 0.00 0.00 83 1018.2
20260508041505 56 45 1.0 4.0 0.00 0.00 0.00 83 1018.2
20260508041005 57 45 2.0 6.0 0.00 0.00 0.00 83 1018.2
20260508040504 57 45 3.0 6.0 0.00 0.00 0.00 82 1018.0
20260508040005 57 45 2.0 6.0 0.00 0.00 0.00 82 1018.0
20260508035504 57 45 2.0 5.0 0.00 0.00 0.00 81 1017.9
20260508035004 58 45 1.0 3.0 0.00 0.00 0.00 82 1017.9
20260508034505 58 45 1.0 3.0 0.00 0.00 0.00 81 1017.8
20260508034004 58 45 2.0 4.0 0.00 0.00 0.00 81 1017.8
20260508033525 58 45 1.0 4.0 0.00 0.00 0.00 81 1017.7
20260508033004 59 45 1.0 2.0 0.00 0.00 0.00 81 1017.6
20260508032504 59 68 1.0 2.0 0.00 0.00 0.00 81 1017.6
20260508032005 59 68 1.0 2.0 0.00 0.00 0.00 81 1017.6
20260508031505 59 0.0 2.0 0.00 0.00 0.00 81 1017.5
20260508031004 59 68 1.0 3.0 0.00 0.00 0.00 81 1017.5
20260508030504 60 68 1.0 3.0 0.00 0.00 0.00 80 1017.4
20260508030005 60 45 1.0 3.0 0.00 0.00 0.00 80 1017.4
20260508025504 60 45 2.0 3.0 0.00 0.00 0.00 80 1017.3
20260508025004 60 45 1.0 6.0 0.00 0.00 0.00 80 1017.3
20260508024505 60 45 1.0 4.0 0.00 0.00 0.00 80 1017.3
20260508024005 61 45 2.0 5.0 0.00 0.00 0.00 79 1017.3
20260508023504 61 45 2.0 5.0 0.00 0.00 0.00 79 1017.2
20260508023005 61 45 2.0 4.0 0.00 0.00 0.00 78 1017.2
20260508022524 61 45 2.0 5.0 0.00 0.00 0.00 78 1017.1
20260508022004 62 45 2.0 5.0 0.00 0.00 0.00 78 1017.2
20260508021505 62 45 2.0 4.0 0.00 0.00 0.00 77 1017.2
20260508021004 62 45 2.0 5.0 0.00 0.00 0.00 77 1017.2
20260508020525 62 45 2.0 4.0 0.00 0.00 0.00 77 1017.2
20260508020004 62 45 2.0 5.0 0.00 0.00 0.00 77 1017.2
20260508015504 62 45 3.0 8.0 0.00 0.00 0.00 76 1017.2
20260508015005 62 45 2.0 7.0 0.00 0.00 0.00 76 1017.2
20260508014504 62 45 3.0 7.0 0.00 0.00 0.00 76 1017.1
20260508014004 62 45 4.0 9.0 0.00 0.00 0.00 75 1017.1
20260508013505 63 45 4.0 8.0 0.00 0.00 0.00 75 1017.3
20260508013004 63 45 3.0 8.0 0.00 0.00 0.00 75 1017.0
20260508012504 63 45 3.0 9.0 0.00 0.00 0.00 75 1017.0
20260508012004 63 45 4.0 10.0 0.00 0.00 0.00 75 1017.1
20260508011504 63 45 4.0 8.0 0.00 0.00 0.00 74 1017.2
20260508011004 63 45 3.0 7.0 0.00 0.00 0.00 74 1017.1
20260508010504 63 45 4.0 11.0 0.00 0.00 0.00 73 1017.0
20260508010004 64 45 4.0 9.0 0.00 0.00 0.00 72 1017.1
20260508005504 64 45 4.0 8.0 0.00 0.00 0.00 72 1017.2
20260508005004 64 45 3.0 10.0 0.00 0.00 0.00 71 1017.3
20260508004504 65 45 5.0 11.0 0.00 0.00 0.00 70 1017.4
20260508004004 65 23 4.0 8.0 0.00 0.00 0.00 69 1017.3
20260508003504 66 45 3.0 8.0 0.00 0.00 0.00 69 1017.3
20260508003006 66 338 3.0 10.0 0.00 0.00 0.00 69 1017.2
20260508002504 66 45 3.0 9.0 0.00 0.00 0.00 69 1017.2
20260508002004 66 45 4.0 10.0 0.00 0.00 0.00 68 1017.1
20260508001504 67 45 4.0 9.0 0.00 0.00 0.00 67 1017.1
20260508001004 67 45 3.0 8.0 0.00 0.00 0.00 67 1017.2
20260508000504 67 338 3.0 10.0 0.00 0.00 0.00 67 1017.2
20260508000004 67 45 3.0 8.0 0.00 0.00 0.00 66 1017.2
20260507235504 67 338 3.0 8.0 0.00 0.00 0.00 66 1017.2
20260507235024 67 45 4.0 9.0 0.00 0.00 0.00 65 1017.2
20260507234504 68 45 3.0 7.0 0.00 0.00 0.00 64 1017.2
20260507234005 68 338 3.0 8.0 0.00 0.00 0.00 66 1017.3
20260507233504 67 45 4.0 9.0 0.00 0.00 0.00 66 1017.2
20260507233004 67 338 2.0 7.0 0.00 0.00 0.00 67 1017.2
20260507232504 67 45 4.0 8.0 0.00 0.00 0.00 67 1017.3
20260507232024 68 45 3.0 7.0 0.00 0.00 0.00 67 1017.3
20260507231504 68 45 3.0 7.0 0.00 0.00 0.00 67 1017.4
20260507231004 68 45 3.0 5.0 0.00 0.00 0.00 68 1017.4
20260507230504 68 338 2.0 6.0 0.00 0.00 0.00 68 1017.4
20260507230024 67 45 3.0 7.0 0.00 0.00 0.00 68 1017.4
20260507225504 67 45 2.0 6.0 0.00 0.00 0.00 69 1017.4
20260507225004 67 45 3.0 7.0 0.00 0.00 0.00 69 1017.4
20260507224504 67 45 4.0 8.0 0.00 0.00 0.00 69 1017.5
20260507224004 68 45 4.0 9.0 0.00 0.00 0.00 68 1017.5
20260507223504 68 45 3.0 6.0 0.00 0.00 0.00 69 1017.4
20260507223004 67 45 3.0 7.0 0.00 0.00 0.00 69 1017.5
20260507222504 67 45 3.0 8.0 0.00 0.00 0.00 69 1017.6
20260507222004 67 45 3.0 8.0 0.00 0.00 0.00 68 1017.8
20260507221504 68 68 3.0 6.0 0.00 0.00 0.00 68 1017.8
20260507221024 68 338 3.0 7.0 0.00 0.00 0.00 69 1017.8
20260507220524 67 45 3.0 7.0 0.00 0.00 0.00 68 1017.9
20260507220044 67 315 2.0 5.0 0.00 0.00 0.00 70 1018.0
20260507215504 67 45 3.0 7.0 0.00 0.00 0.00 70 1018.0
20260507215024 67 338 3.0 6.0 0.00 0.00 0.00 70 1018.1
20260507214524 67 23 3.0 6.0 0.00 0.00 0.00 70 1018.2
20260507214004 66 45 4.0 9.0 0.00 0.00 0.00 71 1018.2
20260507213504 66 45 3.0 7.0 0.00 0.00 0.00 71 1018.2
20260507213004 66 45 4.0 8.0 0.00 0.00 0.00 70 1018.3
20260507212504 66 45 3.0 7.0 0.00 0.00 0.00 70 1018.4
20260507212004 66 45 3.0 9.0 0.00 0.00 0.00 70 1018.3
20260507211503 67 45 3.0 8.0 0.00 0.00 0.00 69 1018.4
20260507211024 67 45 3.0 7.0 0.00 0.00 0.00 70 1018.4
20260507210503 67 45 3.0 8.0 0.00 0.00 0.00 70 1018.6
20260507210003 66 45 3.0 9.0 0.00 0.00 0.00 70 1018.5
20260507205503 67 68 2.0 6.0 0.00 0.00 0.00 70 1018.6
20260507205024 66 45 3.0 7.0 0.00 0.00 0.00 70 1018.6
20260507204504 66 45 2.0 7.0 0.00 0.00 0.00 73 1018.7
20260507204004 65 68 3.0 7.0 0.00 0.00 0.00 72 1018.7
20260507203504 65 45 3.0 7.0 0.00 0.00 0.00 72 1018.7